GW5756 Weather Reports


Display with metric or nautical units.
time (UTC)temp
F
wind
direction
speed
MPH
gust
MPH
rain 1hr
in
rain 24hr
in
rain mn
in
humidity
%
barometer
mb
20260510220020 72 69 11.0 19.0 0.00 0.00 0.00 34 1024.3
20260510214524 70 64 6.0 22.0 0.00 0.00 0.00 35 1024.3
20260510213009 73 73 7.0 18.0 0.00 0.00 0.00 32 1024.5
20260510211510 74 94 8.0 17.0 0.00 0.00 0.00 31 1024.5
20260510210018 70 51 9.0 16.0 0.00 0.00 0.00 33 1024.6
20260510204524 70 79 6.0 16.0 0.00 0.00 0.00 33 1024.4
20260510203034 73 94 11.0 16.0 0.00 0.00 0.00 30 1024.2
20260510201511 75 103 11.0 17.0 0.00 0.00 0.00 27 1024.3
20260510200020 78 86 9.0 15.0 0.00 0.00 0.00 26 1023.9
20260510194521 75 76 8.0 14.0 0.00 0.00 0.00 28 1023.6
20260510193027 77 123 6.0 14.0 0.00 0.00 0.00 26 1023.8
20260510191527 74 79 6.0 12.0 0.00 0.00 0.00 31 1023.9
20260510190019 71 136 6.0 9.0 0.00 0.00 0.00 29 1024.1
20260510184518 71 34 3.0 8.0 0.00 0.00 0.00 31 1023.9
20260510183024 73 76 3.0 10.0 0.00 0.00 0.00 27 1024.0
20260510181528 72 96 3.0 9.0 0.00 0.00 0.00 31 1024.1
20260510180012 68 53 2.0 11.0 0.00 0.00 0.00 32 1024.1
20260510174517 68 50 2.0 10.0 0.00 0.00 0.00 32 1024.2
20260510173022 69 65 4.0 12.0 0.00 0.00 0.00 32 1024.0
20260510171524 71 63 5.0 12.0 0.00 0.00 0.00 30 1024.0
20260510170027 74 51 5.0 12.0 0.00 0.00 0.00 27 1023.7
20260510164515 73 38 5.0 11.0 0.00 0.00 0.00 25 1023.6
20260510163020 73 96 7.0 12.0 0.00 0.00 0.00 26 1023.7
20260510161527 71 98 5.0 11.0 0.00 0.00 0.00 27 1023.6
20260510160034 71 57 4.0 13.0 0.00 0.00 0.00 28 1023.6
20260510154526 70 88 3.0 9.0 0.00 0.00 0.00 28 1023.5
20260510153016 69 72 5.0 10.0 0.00 0.00 0.00 29 1023.3
20260510151522 68 91 5.0 12.0 0.00 0.00 0.00 30 1023.4
20260510150006 67 115 3.0 8.0 0.00 0.00 0.00 32 1023.4
20260510144518 66 123 5.0 11.0 0.00 0.00 0.00 31 1023.2
20260510143020 66 104 3.0 8.0 0.00 0.00 0.00 32 1023.1
20260510141526 65 92 3.0 10.0 0.00 0.00 0.00 32 1022.9
20260510140004 64 85 4.0 12.0 0.00 0.00 0.00 32 1022.8
20260510134507 62 103 2.0 4.0 0.00 0.00 0.00 34 1022.6
20260510133016 59 33 0.0 3.0 0.00 0.00 0.00 36 1022.6
20260510131516 57 30 1.0 4.0 0.00 0.00 0.00 37 1022.4
20260510130024 56 352 3.0 5.0 0.00 0.00 0.00 37 1022.3
20260510124508 55 338 2.0 4.0 0.00 0.00 0.00 37 1022.1
20260510123010 56 51 0.0 2.0 0.00 0.00 0.00 35 1021.9
20260510121513 57 297 0.0 1.0 0.00 0.00 0.00 34 1021.6
20260510120021 58 82 0.0 3.0 0.00 0.00 0.00 33 1021.5
20260510114534 59 88 1.0 6.0 0.00 0.00 0.00 32 1021.3
20260510113008 59 101 3.0 9.0 0.00 0.00 0.00 32 1021.4
20260510111514 59 119 2.0 7.0 0.00 0.00 0.00 32 1021.7
20260510110021 55 202 1.0 4.0 0.00 0.00 0.00 31 1022.0
20260510104532 55 360 0.0 0.0 0.00 0.00 0.00 33 1021.4
20260510103026 55 102 0.0 0.0 0.00 0.00 0.00 33 1021.0
20260510101512 56 332 0.0 0.0 0.00 0.00 0.00 30 1020.7
20260510100018 58 332 0.0 0.0 0.00 0.00 0.00 29 1020.6
20260510094533 57 332 0.0 3.0 0.00 0.00 0.00 28 1020.5
20260510093025 56 344 2.0 3.0 0.00 0.00 0.00 29 1020.5
20260510091529 56 316 0.0 0.0 0.00 0.00 0.00 29 1020.3
20260510090014 55 302 0.0 0.0 0.00 0.00 0.00 29 1020.4
20260510084518 55 314 0.0 0.0 0.00 0.00 0.00 27 1020.2
20260510083027 57 314 0.0 0.0 0.00 0.00 0.00 26 1019.8
20260510081537 58 314 0.0 0.0 0.00 0.00 0.00 25 1019.7
20260510080008 59 307 0.0 0.0 0.00 0.00 0.00 24 1019.6
20260510074510 59 297 1.0 3.0 0.00 0.00 0.00 23 1019.4
20260510073012 60 286 1.0 2.0 0.00 0.00 0.00 23 1019.5
20260510071506 60 298 1.0 2.0 0.00 0.00 0.00 22 1019.5
20260510070013 61 306 2.0 4.0 0.00 0.00 0.00 21 1019.4
20260510064516 61 309 0.0 3.0 0.00 0.00 0.00 20 1019.2
20260510063017 62 313 1.0 7.0 0.00 0.00 0.00 20 1019.3
20260510061523 62 328 3.0 7.0 0.00 0.00 0.00 19 1019.1
20260510060007 61 317 4.0 10.0 0.00 0.00 0.00 20 1019.1
20260510054514 61 327 3.0 6.0 0.00 0.00 0.00 20 1018.7
20260510053014 63 314 2.0 5.0 0.00 0.00 0.00 18 1018.5
20260510051527 64 313 2.0 7.0 0.00 0.00 0.00 18 1018.4
20260510050020 64 297 3.0 7.0 0.00 0.00 0.00 17 1018.4
20260510044514 65 328 4.0 7.0 0.00 0.00 0.00 17 1018.4
20260510043022 66 300 3.0 8.0 0.00 0.00 0.00 16 1018.3
20260510041518 66 252 2.0 6.0 0.00 0.00 0.00 17 1018.4
20260510040024 67 288 0.0 4.0 0.00 0.00 0.00 17 1018.4
20260510034508 69 297 1.0 7.0 0.00 0.00 0.00 17 1018.1
20260510033013 69 237 1.0 14.0 0.00 0.00 0.00 17 1018.2
20260510031531 68 224 1.0 3.0 0.00 0.00 0.00 18 1018.2
20260510030026 69 252 0.0 9.0 0.00 0.00 0.00 18 1018.0
20260510024524 70 284 0.0 10.0 0.00 0.00 0.00 18 1018.0
20260510023014 70 230 4.0 12.0 0.00 0.00 0.00 17 1017.9
20260510021528 71 265 0.0 2.0 0.00 0.00 0.00 17 1017.6
20260510020020 71 196 2.0 9.0 0.00 0.00 0.00 16 1017.5
20260510014522 72 307 3.0 8.0 0.00 0.00 0.00 16 1017.3
20260510013022 73 234 7.0 17.0 0.00 0.00 0.00 15 1017.0
20260510011513 74 243 4.0 10.0 0.00 0.00 0.00 14 1016.5
20260510010003 75 200 3.0 7.0 0.00 0.00 0.00 13 1016.5
20260510004504 76 194 5.0 13.0 0.00 0.00 0.00 13 1016.5
20260510003008 76 296 6.0 12.0 0.00 0.00 0.00 12 1016.4
20260510001510 76 183 3.0 8.0 0.00 0.00 0.00 12 1016.5
20260510000021 77 260 1.0 10.0 0.00 0.00 0.00 1016.6
20260509234507 79 273 8.0 14.0 0.00 0.00 0.00 10 1016.6
20260509233006 80 243 4.0 19.0 0.00 0.00 0.00 11 1016.7
20260509231507 80 289 10.0 19.0 0.00 0.00 0.00 10 1016.5
20260509230016 81 14 3.0 14.0 0.00 0.00 0.00 11 1016.7
20260509224521 81 327 4.0 14.0 0.00 0.00 0.00 11 1016.8
20260509223005 80 229 7.0 19.0 0.00 0.00 0.00 10 1016.8
20260509221509 81 198 4.0 18.0 0.00 0.00 0.00 11 1017.0